Time,TemperatureF,DewpointF,PressureIn,WindDirection,WindDirectionDegrees,WindSpeedMPH,WindSpeedGustMPH,Humidity,HourlyPrecipIn,Conditions,Clouds,dailyrainin,SoftwareType,DateUTC
2013-01-29 00:01:00,35.0,27.0,30.05,NW,320,5.0,14.0,71,0.00,,,0.00,,2013-01-29 08:01:00,
2013-01-29 00:11:00,35.0,27.0,30.05,NW,320,5.0,14.0,71,0.00,,,0.00,,2013-01-29 08:11:00,
2013-01-29 00:21:00,36.0,26.0,30.06,NNE,25,9.0,17.0,68,0.00,,,0.00,,2013-01-29 08:21:00,
2013-01-29 00:31:00,36.0,26.0,30.04,ESE,104,6.0,17.0,66,0.00,,,0.00,,2013-01-29 08:31:00,
2013-01-29 00:41:00,36.0,26.0,30.04,ESE,104,6.0,17.0,66,0.00,,,0.00,,2013-01-29 08:41:00,
2013-01-29 00:52:00,36.0,26.0,30.04,WNW,288,8.0,16.0,67,0.00,,,0.00,,2013-01-29 08:52:00,
2013-01-29 01:01:00,36.0,25.0,30.05,ENE,64,7.0,19.0,65,0.00,,,0.00,,2013-01-29 09:01:00,
2013-01-29 01:11:00,36.0,25.0,30.05,ENE,64,7.0,19.0,65,0.00,,,0.00,,2013-01-29 09:11:00,
2013-01-29 01:21:00,36.0,26.0,30.04,West,263,8.0,19.0,67,0.00,,,0.00,,2013-01-29 09:21:00,
2013-01-29 01:31:00,36.0,26.0,30.04,WNW,299,9.0,23.0,67,0.00,,,0.00,,2013-01-29 09:31:00,
2013-01-29 01:42:00,36.0,26.0,30.04,WNW,299,9.0,23.0,67,0.00,,,0.00,,2013-01-29 09:42:00,
2013-01-29 01:51:00,36.0,27.0,30.04,NNW,329,9.0,27.0,69,0.00,,,0.00,,2013-01-29 09:51:00,
2013-01-29 02:01:00,36.0,26.0,30.04,NW,313,9.0,20.0,67,0.00,,,0.00,,2013-01-29 10:01:00,
2013-01-29 02:11:00,36.0,26.0,30.04,NW,313,9.0,20.0,67,0.00,,,0.00,,2013-01-29 10:11:00,
2013-01-29 02:21:00,36.0,26.0,30.04,NW,313,8.0,15.0,67,0.00,,,0.00,,2013-01-29 10:21:00,
2013-01-29 02:32:00,36.0,27.0,30.06,NNW,346,11.0,26.0,69,0.00,,,0.00,,2013-01-29 10:32:00,
2013-01-29 02:41:00,36.0,27.0,30.06,NNW,346,11.0,26.0,69,0.00,,,0.00,,2013-01-29 10:41:00,
2013-01-29 02:52:00,36.0,27.0,30.05,West,271,4.0,25.0,70,0.00,,,0.00,,2013-01-29 10:52:00,
2013-01-29 03:01:00,36.0,28.0,30.06,WNW,289,9.0,24.0,71,0.00,,,0.00,,2013-01-29 11:01:00,
2013-01-29 03:11:00,36.0,28.0,30.06,WNW,289,9.0,24.0,71,0.00,,,0.00,,2013-01-29 11:11:00,
2013-01-29 03:21:00,36.0,27.0,30.06,NNW,346,8.0,22.0,70,0.00,,,0.00,,2013-01-29 11:21:00,
2013-01-29 03:31:00,36.0,26.0,30.06,NNE,13,12.0,31.0,68,0.00,,,0.00,,2013-01-29 11:31:00,
2013-01-29 03:41:00,36.0,26.0,30.06,NNE,13,12.0,31.0,68,0.00,,,0.00,,2013-01-29 11:41:00,
2013-01-29 03:52:00,36.0,27.0,30.05,SE,130,4.0,21.0,70,0.00,,,0.00,,2013-01-29 11:52:00,
2013-01-29 04:02:00,36.0,28.0,30.05,SW,224,3.0,17.0,71,0.00,,,0.00,,2013-01-29 12:02:00,
2013-01-29 04:12:00,36.0,28.0,30.05,SW,224,3.0,17.0,71,0.00,,,0.00,,2013-01-29 12:12:00,
2013-01-29 04:21:00,36.0,28.0,30.02,WNW,283,9.0,18.0,71,0.00,,,0.00,,2013-01-29 12:21:00,
2013-01-29 04:32:00,36.0,27.0,30.01,NNE,15,16.0,29.0,69,0.00,,,0.00,,2013-01-29 12:32:00,
2013-01-29 04:42:00,36.0,27.0,30.01,NNE,15,16.0,29.0,69,0.00,,,0.00,,2013-01-29 12:42:00,
2013-01-29 04:52:00,37.0,27.0,30.03,SE,126,4.0,29.0,68,0.00,,,0.00,,2013-01-29 12:52:00,
2013-01-29 05:01:00,37.0,28.0,30.03,NNW,346,12.0,21.0,69,0.00,,,0.00,,2013-01-29 13:01:00,
2013-01-29 05:11:00,37.0,28.0,30.03,NNW,346,12.0,21.0,69,0.00,,,0.00,,2013-01-29 13:11:00,
2013-01-29 05:22:00,38.0,28.0,30.03,WNW,294,13.0,38.0,66,0.00,,,0.00,,2013-01-29 13:22:00,
2013-01-29 05:31:00,38.0,28.0,30.01,North,5,10.0,24.0,66,0.00,,,0.00,,2013-01-29 13:31:00,
2013-01-29 05:42:00,38.0,28.0,30.01,North,5,10.0,24.0,66,0.00,,,0.00,,2013-01-29 13:42:00,
2013-01-29 05:52:00,37.0,27.0,30.02,NNW,344,6.0,30.0,68,0.00,,,0.00,,2013-01-29 13:52:00,
2013-01-29 06:01:00,37.0,27.0,30.04,NNE,25,7.0,21.0,68,0.00,,,0.00,,2013-01-29 14:01:00,
2013-01-29 06:11:00,38.0,28.0,30.03,NNW,337,12.0,30.0,66,0.00,,,0.00,,2013-01-29 14:11:00,
2013-01-29 06:21:00,38.0,28.0,30.03,NNW,337,12.0,30.0,66,0.00,,,0.00,,2013-01-29 14:21:00,
2013-01-29 06:32:00,37.0,27.0,30.04,West,263,8.0,23.0,68,0.00,,,0.00,,2013-01-29 14:32:00,
2013-01-29 06:42:00,37.0,27.0,30.04,West,263,8.0,23.0,68,0.00,,,0.00,,2013-01-29 14:42:00,
2013-01-29 06:52:00,38.0,28.0,30.05,SSW,193,6.0,19.0,66,0.00,,,0.00,,2013-01-29 14:52:00,
2013-01-29 07:01:00,38.0,28.0,30.05,SSW,193,6.0,19.0,66,0.00,,,0.00,,2013-01-29 15:01:00,
2013-01-29 07:11:00,38.0,28.0,30.05,SSW,193,6.0,19.0,66,0.00,,,0.00,,2013-01-29 15:11:00,
2013-01-29 07:21:00,39.0,28.0,30.05,West,281,8.0,31.0,64,0.00,,,0.00,,2013-01-29 15:21:00,
2013-01-29 07:32:00,38.0,28.0,30.05,South,178,5.0,21.0,66,0.00,,,0.00,,2013-01-29 15:32:00,
2013-01-29 07:42:00,38.0,28.0,30.05,South,178,5.0,21.0,66,0.00,,,0.00,,2013-01-29 15:42:00,
2013-01-29 07:52:00,38.0,27.0,30.08,West,259,8.0,25.0,65,0.00,,,0.00,,2013-01-29 15:52:00,
2013-01-29 08:02:00,40.0,28.0,30.09,West,267,8.0,18.0,62,0.00,,,0.00,,2013-01-29 16:02:00,
2013-01-29 08:12:00,40.0,28.0,30.09,West,267,8.0,18.0,62,0.00,,,0.00,,2013-01-29 16:12:00,
2013-01-29 08:21:00,41.0,27.0,30.08,West,272,9.0,19.0,58,0.00,,,0.00,,2013-01-29 16:21:00,
2013-01-29 08:31:00,40.0,28.0,30.08,WNW,285,17.0,30.0,63,0.00,,,0.00,,2013-01-29 16:31:00,
2013-01-29 08:42:00,40.0,28.0,30.08,WNW,285,17.0,30.0,63,0.00,,,0.00,,2013-01-29 16:42:00,
2013-01-29 08:52:00,40.0,28.0,30.07,WNW,285,21.0,39.0,63,0.00,,,0.00,,2013-01-29 16:52:00,
2013-01-29 09:02:00,41.0,29.0,30.06,WNW,289,24.0,39.0,61,0.00,,,0.00,,2013-01-29 17:02:00,
2013-01-29 09:11:00,41.0,29.0,30.06,WNW,289,24.0,39.0,61,0.00,,,0.00,,2013-01-29 17:11:00,
2013-01-29 09:21:00,41.0,29.0,30.06,WNW,292,24.0,46.0,62,0.00,,,0.00,,2013-01-29 17:21:00,
2013-01-29 09:31:00,42.0,28.0,30.06,WNW,283,32.0,48.0,57,0.00,,,0.00,,2013-01-29 17:31:00,
2013-01-29 09:41:00,42.0,28.0,30.06,WNW,283,32.0,48.0,57,0.00,,,0.00,,2013-01-29 17:41:00,
2013-01-29 09:52:00,42.0,28.0,30.05,WNW,287,34.0,47.0,58,0.00,,,0.00,,2013-01-29 17:52:00,
2013-01-29 10:03:00,43.0,28.0,30.06,WNW,286,36.0,50.0,56,0.00,,,0.00,,2013-01-29 18:03:00,
2013-01-29 10:12:00,43.0,28.0,30.06,WNW,286,36.0,50.0,56,0.00,,,0.00,,2013-01-29 18:12:00,
2013-01-29 10:21:00,44.0,28.0,30.06,WNW,286,32.0,48.0,53,0.00,,,0.00,,2013-01-29 18:21:00,
2013-01-29 10:33:00,44.0,28.0,30.06,WNW,288,42.0,54.0,53,0.00,,,0.00,,2013-01-29 18:33:00,
2013-01-29 10:41:00,44.0,28.0,30.06,WNW,288,42.0,54.0,53,0.00,,,0.00,,2013-01-29 18:41:00,
2013-01-29 10:52:00,44.0,28.0,30.05,WNW,284,39.0,52.0,52,0.00,,,0.00,,2013-01-29 18:52:00,
2013-01-29 11:01:00,44.0,28.0,30.06,WNW,287,40.0,58.0,53,0.00,,,0.00,,2013-01-29 19:01:00,
2013-01-29 11:11:00,44.0,28.0,30.06,WNW,287,40.0,58.0,53,0.00,,,0.00,,2013-01-29 19:11:00,
2013-01-29 11:22:00,44.0,28.0,30.07,WNW,291,36.0,55.0,53,0.00,,,0.00,,2013-01-29 19:22:00,
2013-01-29 11:31:00,44.0,29.0,30.06,WNW,299,33.0,47.0,56,0.00,,,0.00,,2013-01-29 19:31:00,
2013-01-29 11:41:00,44.0,29.0,30.06,WNW,299,33.0,47.0,56,0.00,,,0.00,,2013-01-29 19:41:00,
2013-01-29 11:52:00,44.0,29.0,30.06,WNW,297,33.0,54.0,56,0.00,,,0.00,,2013-01-29 19:52:00,
2013-01-29 12:01:00,44.0,29.0,30.06,WNW,291,36.0,50.0,55,0.00,,,0.00,,2013-01-29 20:01:00,
2013-01-29 12:11:00,44.0,29.0,30.06,WNW,291,36.0,50.0,55,0.00,,,0.00,,2013-01-29 20:11:00,
2013-01-29 12:21:00,45.0,30.0,30.04,WNW,292,33.0,51.0,55,0.00,,,0.00,,2013-01-29 20:21:00,
2013-01-29 12:32:00,45.0,30.0,30.04,WNW,286,32.0,51.0,56,0.00,,,0.00,,2013-01-29 20:32:00,
2013-01-29 12:41:00,45.0,30.0,30.04,WNW,286,32.0,51.0,56,0.00,,,0.00,,2013-01-29 20:41:00,
2013-01-29 12:53:00,46.0,30.0,30.03,WNW,286,32.0,48.0,54,0.00,,,0.00,,2013-01-29 20:53:00,
2013-01-29 13:01:00,47.0,30.0,30.04,NW,305,32.0,43.0,52,0.00,,,0.00,,2013-01-29 21:01:00,
2013-01-29 13:11:00,47.0,30.0,30.04,NW,305,32.0,43.0,52,0.00,,,0.00,,2013-01-29 21:11:00,
2013-01-29 13:21:00,47.0,30.0,30.02,WNW,292,31.0,46.0,52,0.00,,,0.00,,2013-01-29 21:21:00,
2013-01-29 13:32:00,47.0,30.0,30.01,WNW,285,33.0,47.0,52,0.00,,,0.00,,2013-01-29 21:32:00,
2013-01-29 13:41:00,47.0,30.0,30.01,WNW,285,33.0,47.0,52,0.00,,,0.00,,2013-01-29 21:41:00,
2013-01-29 13:52:00,48.0,31.0,30.02,WNW,289,32.0,45.0,51,0.00,,,0.00,,2013-01-29 21:52:00,
2013-01-29 14:01:00,49.0,32.0,30.01,WNW,295,28.0,43.0,51,0.00,,,0.00,,2013-01-29 22:01:00,
2013-01-29 14:11:00,49.0,32.0,30.01,WNW,295,28.0,43.0,51,0.00,,,0.00,,2013-01-29 22:11:00,
2013-01-29 14:21:00,48.0,31.0,30.01,WNW,295,29.0,43.0,52,0.00,,,0.00,,2013-01-29 22:21:00,
2013-01-29 14:32:00,47.0,31.0,29.99,WNW,292,36.0,50.0,53,0.00,,,0.00,,2013-01-29 22:32:00,
2013-01-29 14:42:00,47.0,31.0,29.99,WNW,292,36.0,50.0,53,0.00,,,0.00,,2013-01-29 22:42:00,
2013-01-29 14:53:00,47.0,31.0,30.00,WNW,296,39.0,49.0,53,0.00,,,0.00,,2013-01-29 22:53:00,
2013-01-29 15:01:00,47.0,31.0,29.99,WNW,294,34.0,48.0,54,0.00,,,0.00,,2013-01-29 23:01:00,
2013-01-29 15:11:00,47.0,31.0,29.99,WNW,294,34.0,48.0,54,0.00,,,0.00,,2013-01-29 23:11:00,
2013-01-29 15:22:00,47.0,31.0,30.01,WNW,294,34.0,49.0,54,0.00,,,0.00,,2013-01-29 23:22:00,
2013-01-29 15:32:00,48.0,32.0,30.03,NNW,339,19.0,46.0,53,0.00,,,0.00,,2013-01-29 23:32:00,
2013-01-29 15:41:00,48.0,32.0,30.03,NNW,339,19.0,46.0,53,0.00,,,0.00,,2013-01-29 23:41:00,
2013-01-29 15:53:00,52.0,31.0,30.05,SSW,192,7.0,22.0,45,0.00,,,0.00,,2013-01-29 23:53:00,
2013-01-29 16:01:00,51.0,31.0,30.04,WNW,291,9.0,25.0,47,0.00,,,0.00,,2013-01-30 00:01:00,
2013-01-29 16:11:00,51.0,31.0,30.04,WNW,291,9.0,25.0,47,0.00,,,0.00,,2013-01-30 00:11:00,
2013-01-29 16:21:00,50.0,31.0,30.06,ESE,111,4.0,20.0,48,0.00,,,0.00,,2013-01-30 00:21:00,
2013-01-29 16:32:00,50.0,32.0,30.06,WSW,251,8.0,13.0,49,0.00,,,0.00,,2013-01-30 00:32:00,
2013-01-29 16:42:00,50.0,32.0,30.06,WSW,251,8.0,13.0,49,0.00,,,0.00,,2013-01-30 00:42:00,
2013-01-29 16:52:00,49.0,31.0,30.08,South,169,4.0,13.0,50,0.00,,,0.00,,2013-01-30 00:52:00,
2013-01-29 17:01:00,48.0,31.0,30.11,SW,218,7.0,14.0,52,0.00,,,0.00,,2013-01-30 01:01:00,
2013-01-29 17:11:00,48.0,31.0,30.11,SW,218,7.0,14.0,52,0.00,,,0.00,,2013-01-30 01:11:00,
2013-01-29 17:22:00,46.0,31.0,30.11,SW,228,4.0,17.0,56,0.00,,,0.00,,2013-01-30 01:22:00,
2013-01-29 17:31:00,45.0,30.0,30.11,West,269,5.0,8.0,56,0.00,,,0.00,,2013-01-30 01:31:00,
2013-01-29 17:42:00,45.0,30.0,30.11,West,269,5.0,8.0,56,0.00,,,0.00,,2013-01-30 01:42:00,
2013-01-29 17:52:00,44.0,31.0,30.10,WSW,241,12.0,27.0,59,0.00,,,0.00,,2013-01-30 01:52:00,
2013-01-29 18:01:00,42.0,30.0,30.09,SW,229,29.0,36.0,63,0.00,,,0.00,,2013-01-30 02:01:00,
2013-01-29 18:11:00,42.0,30.0,30.09,SW,229,29.0,36.0,63,0.00,,,0.00,,2013-01-30 02:11:00,
2013-01-29 18:21:00,42.0,30.0,30.09,SW,229,29.0,36.0,63,0.00,,,0.00,,2013-01-30 02:21:00,
2013-01-29 18:33:00,43.0,30.0,30.11,WSW,237,24.0,34.0,60,0.00,,,0.00,,2013-01-30 02:33:00,
2013-01-29 18:41:00,43.0,30.0,30.11,WSW,237,24.0,34.0,60,0.00,,,0.00,,2013-01-30 02:41:00,
2013-01-29 18:53:00,43.0,30.0,30.13,WSW,244,21.0,30.0,59,0.00,,,0.00,,2013-01-30 02:53:00,
2013-01-29 19:02:00,42.0,30.0,30.14,WSW,240,19.0,26.0,62,0.00,,,0.00,,2013-01-30 03:02:00,
2013-01-29 19:11:00,42.0,30.0,30.14,WSW,240,19.0,26.0,62,0.00,,,0.00,,2013-01-30 03:11:00,
2013-01-29 19:21:00,41.0,30.0,30.14,WSW,246,17.0,27.0,65,0.00,,,0.00,,2013-01-30 03:21:00,
2013-01-29 19:31:00,40.0,30.0,30.14,WSW,246,20.0,30.0,67,0.00,,,0.00,,2013-01-30 03:31:00,
2013-01-29 19:41:00,40.0,30.0,30.14,WSW,246,20.0,30.0,67,0.00,,,0.00,,2013-01-30 03:41:00,
2013-01-29 19:52:00,39.0,30.0,30.14,WSW,241,21.0,28.0,71,0.00,,,0.00,,2013-01-30 03:52:00,
2013-01-29 20:01:00,39.0,30.0,30.14,WSW,238,21.0,28.0,71,0.00,,,0.00,,2013-01-30 04:01:00,
2013-01-29 20:11:00,39.0,30.0,30.14,WSW,238,21.0,28.0,71,0.00,,,0.00,,2013-01-30 04:11:00,
2013-01-29 20:21:00,40.0,30.0,30.15,SW,236,20.0,28.0,67,0.00,,,0.00,,2013-01-30 04:21:00,
2013-01-29 20:31:00,40.0,30.0,30.15,WSW,244,17.0,25.0,67,0.00,,,0.00,,2013-01-30 04:31:00,
2013-01-29 20:41:00,40.0,30.0,30.15,WSW,244,17.0,25.0,67,0.00,,,0.00,,2013-01-30 04:41:00,
2013-01-29 20:52:00,39.0,31.0,30.16,WSW,238,12.0,23.0,72,0.00,,,0.00,,2013-01-30 04:52:00,
2013-01-29 21:03:00,38.0,31.0,30.17,SW,229,16.0,22.0,76,0.00,,,0.00,,2013-01-30 05:03:00,
2013-01-29 21:11:00,38.0,31.0,30.18,SW,223,16.0,21.0,75,0.00,,,0.00,,2013-01-30 05:11:00,
2013-01-29 21:22:00,38.0,31.0,30.18,SW,223,16.0,21.0,75,0.00,,,0.00,,2013-01-30 05:22:00,
2013-01-29 21:31:00,38.0,31.0,30.18,SW,224,12.0,19.0,75,0.00,,,0.00,,2013-01-30 05:31:00,
2013-01-29 21:42:00,38.0,31.0,30.18,SW,224,12.0,19.0,75,0.00,,,0.00,,2013-01-30 05:42:00,
2013-01-29 21:52:00,38.0,30.0,30.18,SW,219,13.0,17.0,73,0.00,,,0.00,,2013-01-30 05:52:00,
2013-01-29 22:02:00,39.0,30.0,30.18,SW,225,16.0,21.0,71,0.00,,,0.00,,2013-01-30 06:02:00,
2013-01-29 22:11:00,39.0,30.0,30.18,SW,225,16.0,21.0,71,0.00,,,0.00,,2013-01-30 06:11:00,
2013-01-29 22:21:00,39.0,30.0,30.19,SW,219,15.0,21.0,69,0.00,,,0.00,,2013-01-30 06:21:00,
2013-01-29 22:31:00,38.0,29.0,30.20,SW,229,17.0,22.0,71,0.00,,,0.00,,2013-01-30 06:31:00,
2013-01-29 22:41:00,38.0,29.0,30.20,SW,229,17.0,22.0,71,0.00,,,0.00,,2013-01-30 06:41:00,
2013-01-29 22:52:00,38.0,30.0,30.19,SW,228,14.0,17.0,73,0.00,,,0.00,,2013-01-30 06:52:00,
2013-01-29 23:01:00,37.0,29.0,30.20,WSW,247,9.0,16.0,74,0.00,,,0.00,,2013-01-30 07:01:00,
2013-01-29 23:11:00,37.0,29.0,30.20,WSW,247,9.0,16.0,74,0.00,,,0.00,,2013-01-30 07:11:00,
2013-01-29 23:21:00,37.0,29.0,30.20,WSW,254,8.0,12.0,74,0.00,,,0.00,,2013-01-30 07:21:00,
2013-01-29 23:31:00,36.0,29.0,30.21,WSW,250,8.0,10.0,74,0.00,,,0.00,,2013-01-30 07:31:00,
2013-01-29 23:41:00,36.0,29.0,30.21,WSW,250,8.0,10.0,74,0.00,,,0.00,,2013-01-30 07:41:00,
2013-01-29 23:52:00,37.0,29.0,30.22,WSW,255,10.0,13.0,74,0.00,,,0.00,,2013-01-30 07:52:00,